Flag for U.S.A. Weather past 2 weeks in Annapolis, Maryland, U.S.A.

Now
88 °F

Partly sunny.


Feels Like: 92 °F
Forecast: 75 / 89 °F
Wind: 7 mph from Northwest

Location: Annapolis - United States Naval Academy

Current Time: Sep 2, 2014 at 2:05:10 PM

Latest Report: Sep 2, 2014 at 12:54 PM


Visibility: 10 mi

Pressure: 29.95 "Hg

Humidity: 54%

Dew point: 69 °F

Location of AnnapolisLocation

Historic Weather in Annapolis — Graph

°F

Annapolis temperature yesterday

Maximum temperature yesterday: 86 °F (at 6:54 PM)
Minimum temperature yesterday: 74 °F (at 4:54 AM)
Average temperature yesterday: 80 °F

Past Weeks' High & Low Weather Summary

 TemperatureHumidityPressure
High89 °F (Aug 31, 2:54 PM)94% (Aug 31, 10:54 PM)30.24 "Hg (Aug 31, 10:54 PM)
Low65 °F (Aug 29, 6:54 AM)40% (Aug 28, 4:54 PM)29.81 "Hg (Aug 19, 3:54 AM)
Average76 °F72%30.04 "Hg
* Reported Aug 18 12:54 PM — Sep 2 12:54 PM, Annapolis, Weather by CustomWeather, © 2014

Note: Actual official high and low records may vary slightly from our data, if they occured in-between our weather recording intervals... More about our weather records

Advertising

Annapolis weather history for previous 24 hours

 ConditionsComfort  
Time TempWeatherWind HumidityBarometerVisibility
12:54 PM
Sep 2
88 °FPartly sunny.7 mph54%29.95 "Hg10 mi
11:54 AM89 °FPartly sunny.9 mph52%29.97 "Hg10 mi
10:54 AM88 °FSunny.3 mph54%29.98 "Hg10 mi
9:54 AM85 °FSunny.8 mph61%29.98 "Hg10 mi
8:54 AM82 °FPassing clouds.5 mph65%29.97 "Hg10 mi
7:54 AM79 °FSunny.No wind72%29.97 "Hg10 mi
6:54 AM76 °FClear.No wind85%29.96 "Hg10 mi
5:54 AM77 °FClear.No wind85%29.94 "Hg10 mi
4:54 AM77 °FClear.No wind85%29.93 "Hg10 mi
3:54 AM77 °FClear.No wind85%29.94 "Hg10 mi
2:54 AM79 °FClear.3 mph82%29.94 "Hg10 mi
1:54 AM80 °FPassing clouds.No wind79%29.96 "Hg10 mi
12:54 AM81 °FPassing clouds.No wind77%29.95 "Hg10 mi
11:54 PM
Sep 1
80 °FHaze.No wind81%29.96 "Hg6 mi
10:54 PM79 °FClear.No wind90%29.97 "Hg8 mi
9:54 PM80 °FClear.No wind87%29.97 "Hg9 mi
8:54 PM82 °FClear.No wind74%29.96 "Hg10 mi
7:54 PM82 °FPartly sunny.No wind79%29.96 "Hg10 mi
6:54 PM86 °FScattered clouds.No wind67%29.95 "Hg10 mi
5:54 PM83 °FLight rain. Overcast.No wind74%29.94 "Hg10 mi
4:54 PM84 °FPartly sunny.8 mph70%29.94 "Hg10 mi
3:54 PM85 °FPassing clouds.10 mph72%29.95 "Hg10 mi
2:54 PM83 °FPartly sunny.14 mph79%29.96 "Hg10 mi
Weather by CustomWeather, © 2014

See weather overviewHow to use our weather pages